Location: Launois
(49.6535°N, 4.5395°E)
Time: 14:41:17
(UTC+00:00)

Cosmos 2151 Rocket - Pass Details

Date: 23 May 2024
Orbit: 614 x 639 km, 82.5° (Epoch: 18 June)

Event Time Altitude Azimuth Distance (km) Brightness Sun altitude
Rises 02:33:51 0° 349° (N) 2,945 7.6 -9.7°
Reaches altitude 10° 02:36:06 10° 350° (N) 2,028 6.8 -9.5°
Maximum altitude 02:40:37 88° 263° (W) 637 3.6 -9.0°
Drops below altitude 10° 02:45:03 10° 172° (S) 1,996 5.8 -8.5°
Sets 02:47:15 0° 173° (S) 2,893 6.6 -8.2°
